Regional Weather Roundup
Issued by NWS

Home | Current Version | Previous Version | Graphics & Text | Print | Product List | Glossary On
Versions: 1 2 3 4 5 6 7 8 9 10 11 12 13 14 15 16 17 18 19 20 21 22 23 24 25 26 27 28 29 30 31 32 33 34 35 36 37 38 39 40 41 42 43 44 45 46 47 48 49 50
886
ASUS44 KMEG 021000
RWRTN
TENNESSEE HOURLY STATE WEATHER ROUNDUP
NATIONAL WEATHER SERVICE MEMPHIS TN
500 AM CDT MON MAY 02 2016

TNZ002-004-019-021-049-052-054-088>092-021100-
WEST TENNESSEE

CITY           SKY/WX    TMP DP  RH WIND       PRES   REMARKS
MEMPHIS INTL   CLOUDY    66  54  65 N12       29.97S
NWS MEMPHIS      N/A     64 N/A N/A MISG        N/A
JACKSON        CLOUDY    62  55  77 N7        29.98R
DYERSBURG      CLOUDY    61  48  63 N8          N/A
UNION CITY     CLOUDY    57  52  82 N9        30.00S
LEXINGTON      CLOUDY    64  64 100 N9        29.97R
$$

TNZ008-025-027-028-033-062-065-066-021100-
NORTH MIDDLE TENNESSEE

CITY           SKY/WX    TMP DP  RH WIND       PRES   REMARKS
NASHVILLE      CLOUDY    67  62  84 NW6       29.98R
CLARKSVILLE    CLOUDY    60  52  74 N9        29.99F
COOKEVILLE     CLOUDY    64  63  94 S3        29.98F
CROSSVILLE     MOCLDY    62  57  83 CALM      30.03S
$$

TNZ061-075-076-078-094-096-097-021100-
SOUTH MIDDLE TENNESSEE

CITY           SKY/WX    TMP DP  RH WIND       PRES   REMARKS
TULLAHOMA      PTCLDY    61  61 100 CALM      30.01S
WINCHESTER     MOCLDY    59  57  94 CALM      30.01S
MCMINNVILLE    CLOUDY    63  63 100 CALM      30.00S
COLUMBIA       CLOUDY   N/A N/A N/A CALM      29.96S
SHELBYVILLE    CLOUDY    63  63 100 CALM      30.00S
$$

TNZ017-018-042-046-047-021100-
NORTHEAST TENNESSEE

CITY           SKY/WX    TMP DP  RH WIND       PRES   REMARKS
TRI CITIES     CLOUDY    66  62  87 SW6       30.01S
$$

TNZ012-013-036-069-073-074-021100-
CENTRAL EAST TENNESSEE

CITY           SKY/WX    TMP DP  RH WIND       PRES   REMARKS
KNOXVILLE      MOCLDY    64  61  90 SW9       30.00R
OAK RIDGE      CLOUDY    66  63  90 W5        30.02R
GATLINBURG     SUNNY     57  57 100 CALM      30.00S
$$

TNZ083-085-099-021100-
SOUTHEAST TENNESSEE

CITY           SKY/WX    TMP DP  RH WIND       PRES   REMARKS
CHATTANOOGA    CLOUDY    62  59  90 CALM      30.01S
$$

SKY/WX REPORTED AS FAIR MEANS FEW OR NO CLOUDS BELOW
12 THOUSAND FEET.





USA.gov is the U.S. government's official web portal to all federal, state and local government web resources and services.